Burlington, VT

5:08 AM EDT on May 23, 2017 (GMT -0400)
Burlington International

Weather History for KBTV - September, 2013

Change the Weather History Date:

Sunday, September 15, 2013

  Actual Average Record
Temperature  
Mean Temperature 56 °F 61 °F  
Max Temperature 68 °F 71 °F 92 °F (1915)
Min Temperature 43 °F 51 °F 30 °F (1913)
Degree Days  
Heating Degree Days 9 5  
Month to date heating degree days 67 52  
Since 1 July heating degree days 83 94  
Cooling Degree Days 0 1  
Month to date cooling degree days 53 33  
Year to date cooling degree days 653 481  
Growing Degree Days 6 (Base 50)    
Moisture  
Dew Point 48 °F    
Average Humidity 76    
Maximum Humidity 100    
Minimum Humidity 52    
Precipitation  
Precipitation 0.04 in 0.12 in 1.50 in (1945)
Month to date precipitation 3.55 1.70  
Year to date precipitation 36.24 25.77  
Snow  
Snow 0.00 in 0.00 in 0.00 in (2002)
Month to date snowfall 0.0 0.0  
Since 1 July snowfall 0.0 0.0  
Since 1 September snowfall 0.0 0.0  
Snow Depth 0.00 in    
Sea Level Pressure  
Sea Level Pressure 30.08 in    
Wind  
Wind Speed 6 mph (South)    
Max Wind Speed 16 mph    
Max Gust Speed 22 mph    
Visibility 10 miles    
Events Rain    
T = Trace of Precipitation, MM = Missing Value Source: NWS Daily Summary

Daily Weather History Graph

Daily Weather History Graph

Search for Another Location

Airport or City:

Trip Planner

Search our weather history database for the weather conditions in past years. The results will help you decide how hot, cold, wet, or windy it might be!

Date:

Astronomy

Sep. 15, 2013 Rise Set
Actual Time 6:31 AM EDT 7:02 PM EDT
Civil Twilight 6:02 AM EDT 7:31 PM EDT
Nautical Twilight 5:27 AM EDT 8:06 PM EDT
Astronomical Twilight 4:52 AM EDT 8:42 PM EDT
Moon 4:35 PM EDT (9/15) 1:58 AM EDT (9/15)
Length of Visible Light 13h 29m
Length of Day
12h 31m
Waxing Gibbous, 82% of the Moon is Illuminated
Sep 15
Waxing Gibbous
Sep 19
Full
Sep 26
Last Quarter
Oct 4
New
Oct 11
First Quarter

Hourly Weather History & Observations

Time (EDT) Temp. Windchill Dew Point Humidity Pressure Visibility Wind Dir Wind Speed Gust Speed Precip Events Conditions
12:54 AM 46.9 °F - 45.0 °F 93% 30.09 in 10.0 mi SE 3.5 mph - N/A   Clear
1:54 AM 45.0 °F 43.5 °F 44.1 °F 97% 30.08 in 10.0 mi East 3.5 mph - N/A   Clear
2:54 AM 45.0 °F - 44.1 °F 97% 30.09 in 10.0 mi Calm Calm - N/A   Clear
3:54 AM 44.1 °F 42.5 °F 42.1 °F 93% 30.09 in 10.0 mi ESE 3.5 mph - N/A   Clear
4:54 AM 44.1 °F - 42.1 °F 93% 30.10 in 10.0 mi Calm Calm - N/A   Clear
5:54 AM 44.1 °F - 42.1 °F 93% 30.12 in 10.0 mi Calm Calm - N/A   Clear
6:54 AM 45.0 °F - 43.0 °F 93% 30.12 in 10.0 mi Calm Calm - N/A   Partly Cloudy
7:54 AM 50.0 °F - 45.0 °F 83% 30.13 in 10.0 mi South 8.1 mph - N/A   Partly Cloudy
8:54 AM 53.1 °F - 46.0 °F 77% 30.13 in 10.0 mi South 9.2 mph 19.6 mph N/A   Partly Cloudy
9:54 AM 57.0 °F - 46.0 °F 67% 30.13 in 10.0 mi South 12.7 mph 20.7 mph N/A   Scattered Clouds
10:54 AM 60.1 °F - 46.9 °F 62% 30.14 in 10.0 mi SSW 12.7 mph - N/A   Partly Cloudy
11:54 AM 63.0 °F - 48.0 °F 58% 30.11 in 10.0 mi SSW 10.4 mph - N/A   Partly Cloudy
12:54 PM 64.0 °F - 48.9 °F 58% 30.10 in 10.0 mi South 10.4 mph - N/A   Partly Cloudy
1:54 PM 66.9 °F - 48.0 °F 51% 30.08 in 10.0 mi South 9.2 mph - N/A   Partly Cloudy
2:54 PM 66.0 °F - 48.9 °F 54% 30.06 in 10.0 mi South 9.2 mph - N/A   Mostly Cloudy
3:54 PM 66.0 °F - 50.0 °F 56% 30.05 in 10.0 mi SSW 9.2 mph - N/A   Mostly Cloudy
4:54 PM 64.9 °F - 52.0 °F 63% 30.03 in 10.0 mi South 6.9 mph - N/A   Overcast
5:54 PM 64.0 °F - 53.1 °F 67% 30.04 in 10.0 mi South 8.1 mph - N/A   Overcast
6:54 PM 62.1 °F - 52.0 °F 70% 30.01 in 10.0 mi South 5.8 mph - N/A   Overcast
7:54 PM 61.0 °F - 53.1 °F 75% 30.04 in 10.0 mi WSW 3.5 mph - N/A   Overcast
8:54 PM 60.1 °F - 53.1 °F 78% 30.04 in 10.0 mi South 6.9 mph - N/A   Overcast
9:54 PM 60.1 °F - 52.0 °F 75% 30.03 in 10.0 mi South 3.5 mph - N/A   Clear
10:54 PM 60.1 °F - 52.0 °F 75% 30.02 in 10.0 mi SE 3.5 mph - N/A   Partly Cloudy
11:54 PM 59.0 °F - 52.0 °F 78% 30.02 in 10.0 mi SSW 3.5 mph - 0.00 in Rain Light Rain